QPF
0.00 0.00 0.00 0.00 0.00 0.00 0.00 0.00 0.00 0.00 0.00 0.00 0.00 0.00 0.00 0.00 0.00 0.00 0.01 0.01 0.02 0.02 0.02 0.02 0.02 0.01 0.01 0.00 0.00 0.00 0.00 0.00 0.00 0.00 0.01 0.01 0.01 0.00 0.01 0.01 0.02 0.01 0.02 0.03
0.00 0.00 0.00 0.00 0.00 0.00 0.00 0.00 0.00 0.00 0.00 0.00 0.00 0.00 0.01 0.01 0.01 0.01 0.01 0.01 0.01 0.02 0.02 0.02 0.01 0.01 0.01 0.00 0.00 0.00 0.00 0.01 0.01 0.01 0.01 0.01 0.01 0.01 0.02 0.01 0.02 0.02 0.01 0.01
0.00 0.00 0.00 0.00 0.00 0.00 0.00 0.00 0.00 0.00 0.00 0.00 0.00 0.01 0.01 0.01 0.01 0.00 0.00 0.01 0.01 0.02 0.02 0.02 0.02 0.02 0.01 0.01 0.00 0.00 0.01 0.01 0.01 0.01 0.02 0.02 0.02 0.02 0.02 0.02 0.02 0.01 0.01 0.01
0.00 0.00 0.01 0.00 0.00 0.00 0.00 0.00 0.00 0.00 0.00 0.00 0.00 0.00 0.00 0.00 0.00 0.00 0.00 0.01 0.01 0.01 0.02 0.01 0.02 0.01 0.01 0.01 0.01 0.01 0.01 0.01 0.02 0.02 0.02 0.02 0.02 0.03 0.04 0.03 0.02 0.01 0.01 0.01
0.00 0.01 0.00 0.00 0.00 0.00 0.00 0.00 0.00 0.00 0.00 0.00 0.00 0.00 0.01 0.00 0.00 0.00 0.00 0.01 0.01 0.02 0.02 0.02 0.02 0.01 0.01 0.01 0.02 0.02 0.02 0.01 0.01 0.01 0.01 0.02 0.03 0.03 0.03 0.03 0.02 0.01 0.01 0.01
0.01 0.01 0.01 0.00 0.00 0.00 0.01 0.01 0.01 0.01 0.01 0.00 0.01 0.01 0.00 0.00 0.00 0.00 0.00 0.01 0.01 0.02 0.03 0.02 0.02 0.01 0.01 0.01 0.02 0.02 0.02 0.02 0.01 0.01 0.01 0.02 0.02 0.02 0.02 0.02 0.02 0.02 0.01 0.01
0.01 0.00 0.00 0.00 0.00 0.00 0.01 0.01 0.01 0.02 0.02 0.01 0.01 0.00 0.00 0.00 0.00 0.01 0.01 0.01 0.02 0.03 0.02 0.02 0.02 0.01 0.01 0.02 0.02 0.02 0.02 0.02 0.02 0.02 0.02 0.02 0.02 0.02 0.02 0.02 0.02 0.02 0.01 0.01
0.01 0.01 0.00 0.00 0.00 0.00 0.00 0.01 0.03 0.04 0.02 0.01 0.01 0.00 0.00 0.00 0.01 0.01 0.01 0.01 0.03 0.03 0.01 0.01 0.02 0.01 0.01 0.01 0.01 0.01 0.01 0.01 0.02 0.02 0.02 0.01 0.01 0.01 0.02 0.03 0.03 0.02 0.02 0.02
0.00 0.00 0.00 0.00 0.00 0.00 0.00 0.02 0.04 0.04 0.02 0.01 0.01 0.01 0.01 0.02 0.02 0.02 0.01 0.02 0.02 0.01 0.00 0.00 0.01 0.01 0.02 0.01 0.01 0.01 0.01 0.01 0.01 0.01 0.02 0.02 0.02 0.02 0.03 0.03 0.03 0.03 0.02 0.01
0.00 0.00 0.00 0.00 0.00 0.00 0.01 0.03 0.04 0.02 0.01 0.01 0.02 0.02 0.02 0.02 0.01 0.01 0.01 0.02 0.01 0.00 0.00 0.01 0.01 0.01 0.01 0.01 0.01 0.01 0.00 0.00 0.00 0.01 0.01 0.01 0.02 0.02 0.02 0.02 0.02 0.02 0.02 0.01
0.01 0.00 0.00 0.01 0.01 0.01 0.02 0.03 0.03 0.01 0.01 0.01 0.01 0.01 0.01 0.01 0.01 0.02 0.02 0.01 0.01 0.00 0.00 0.01 0.01 0.01 0.01 0.01 0.01 0.01 0.01 0.01 0.01 0.01 0.01 0.01 0.01 0.02 0.02 0.01 0.02 0.02 0.02 0.02
0.01 0.01 0.00 0.01 0.01 0.02 0.03 0.04 0.04 0.02 0.01 0.01 0.01 0.01 0.01 0.01 0.01 0.02 0.02 0.01 0.01 0.01 0.01 0.01 0.01 0.01 0.01 0.01 0.01 0.01 0.01 0.01 0.01 0.01 0.01 0.01 0.01 0.01 0.02 0.01 0.02 0.03 0.02 0.02
0.01 0.01 0.01 0.01 0.02 0.02 0.03 0.05 0.06 0.05 0.03 0.01 0.01 0.02 0.02 0.02 0.02 0.01 0.01 0.01 0.01 0.01 0.01 0.01 0.01 0.00 0.00 0.01 0.01 0.01 0.01 0.01 0.01 0.01 0.02 0.02 0.01 0.01 0.01 0.02 0.03 0.03 0.02 0.02
0.01 0.01 0.01 0.01 0.02 0.02 0.02 0.04 0.06 0.05 0.04 0.02 0.02 0.02 0.02 0.02 0.02 0.01 0.01 0.01 0.01 0.02 0.02 0.01 0.01 0.00 0.01 0.01 0.01 0.01 0.01 0.01 0.01 0.02 0.02 0.02 0.02 0.02 0.02 0.02 0.02 0.03 0.03 0.04
0.01 0.01 0.01 0.02 0.02 0.02 0.02 0.04 0.06 0.06 0.05 0.02 0.01 0.01 0.01 0.01 0.01 0.01 0.02 0.02 0.02 0.01 0.01 0.02 0.01 0.01 0.00 0.00 0.00 0.01 0.01 0.01 0.01 0.01 0.01 0.02 0.02 0.02 0.02 0.02 0.02 0.03 0.04 0.05
0.01 0.01 0.01 0.02 0.02 0.02 0.02 0.03 0.05 0.06 0.04 0.03 0.02 0.01 0.01 0.01 0.01 0.01 0.01 0.02 0.01 0.01 0.01 0.01 0.01 0.01 0.01 0.00 0.01 0.01 0.01 0.01 0.01 0.02 0.02 0.02 0.02 0.02 0.02 0.02 0.03 0.03 0.04 0.05
0.02 0.02 0.02 0.02 0.02 0.02 0.01 0.02 0.03 0.05 0.03 0.03 0.02 0.02 0.01 0.01 0.01 0.01 0.01 0.01 0.01 0.01 0.01 0.01 0.01 0.01 0.01 0.01 0.01 0.01 0.01 0.01 0.02 0.02 0.02 0.03 0.03 0.03 0.04 0.03 0.03 0.03 0.03 0.04
0.03 0.01 0.02 0.02 0.02 0.02 0.02 0.02 0.03 0.04 0.04 0.03 0.02 0.02 0.02 0.02 0.02 0.02 0.02 0.02 0.01 0.01 0.01 0.01 0.01 0.01 0.01 0.01 0.01 0.01 0.01 0.01 0.01 0.02 0.03 0.03 0.03 0.04 0.04 0.03 0.03 0.03 0.03 0.03
0.02 0.01 0.01 0.02 0.02 0.02 0.02 0.02 0.03 0.04 0.04 0.04 0.03 0.03 0.03 0.04 0.03 0.02 0.02 0.02 0.01 0.01 0.01 0.01 0.01 0.01 0.01 0.01 0.01 0.01 0.01 0.01 0.02 0.03 0.03 0.04 0.04 0.04 0.04 0.04 0.05 0.05 0.03 0.03
0.01 0.01 0.01 0.01 0.01 0.01 0.01 0.02 0.03 0.04 0.04 0.04 0.04 0.04 0.05 0.05 0.04 0.03 0.02 0.02 0.02 0.01 0.01 0.01 0.01 0.01 0.01 0.02 0.01 0.01 0.01 0.02 0.03 0.03 0.04 0.05 0.04 0.03 0.02 0.03 0.03 0.04 0.04 0.04
0.01 0.00 0.00 0.01 0.01 0.01 0.01 0.01 0.02 0.03 0.03 0.04 0.04 0.04 0.05 0.05 0.06 0.06 0.05 0.04 0.03 0.02 0.02 0.02 0.02 0.02 0.02 0.02 0.02 0.01 0.02 0.03 0.03 0.04 0.05 0.05 0.04 0.03 0.02 0.03 0.03 0.03 0.03 0.03
0.00 0.00 0.00 0.01 0.01 0.01 0.01 0.01 0.01 0.02 0.03 0.03 0.04 0.05 0.05 0.07 0.09 0.11 0.10 0.07 0.05 0.04 0.03 0.03 0.03 0.03 0.03 0.03 0.02 0.01 0.02 0.02 0.02 0.03 0.04 0.06 0.06 0.05 0.03 0.03 0.03 0.02 0.02 0.02
0.01 0.01 0.01 0.01 0.01 0.01 0.01 0.01 0.02 0.02 0.03 0.04 0.04 0.06 0.07 0.08 0.07 0.08 0.10 0.08 0.07 0.06 0.06 0.07 0.08 0.08 0.05 0.03 0.02 0.02 0.02 0.02 0.02 0.02 0.03 0.05 0.06 0.07 0.06 0.05 0.04 0.03 0.02 0.02
0.00 0.00 0.00 0.01 0.01 0.01 0.01 0.01 0.02 0.03 0.03 0.04 0.05 0.05 0.04 0.04 0.03 0.02 0.02 0.02 0.03 0.05 0.05 0.05 0.05 0.05 0.05 0.04 0.04 0.04 0.05 0.04 0.03 0.03 0.03 0.04 0.05 0.06 0.06 0.06 0.06 0.05 0.05 0.04
0.00 0.00 0.01 0.01 0.01 0.01 0.01 0.01 0.01 0.02 0.03 0.03 0.04 0.04 0.03 0.03 0.02 0.02 0.01 0.01 0.00 0.01 0.02 0.03 0.03 0.03 0.03 0.03 0.03 0.03 0.04 0.04 0.03 0.03 0.03 0.03 0.03 0.03 0.04 0.05 0.06 0.06 0.05 0.04
0.01 0.01 0.01 0.01 0.01 0.01 0.01 0.01 0.01 0.02 0.02 0.02 0.02 0.02 0.02 0.02 0.01 0.01 0.01 0.01 0.00 0.00 0.01 0.01 0.01 0.02 0.02 0.03 0.03 0.02 0.02 0.02 0.02 0.02 0.03 0.03 0.02 0.02 0.02 0.03 0.04 0.05 0.05 0.04
0.01 0.01 0.01 0.01 0.01 0.01 0.01 0.01 0.01 0.01 0.01 0.01 0.01 0.01 0.00 0.01 0.01 0.01 0.01 0.01 0.00 0.00 0.01 0.01 0.01 0.01 0.01 0.01 0.02 0.02 0.02 0.02 0.02 0.03 0.03 0.02 0.02 0.02 0.01 0.02 0.02 0.02 0.03 0.03
MSLP
1007.45 1007.76 1008.06 1008.35 1008.67 1009.00 1009.35 1009.69 1010.02 1010.31 1010.54 1010.71 1010.83 1010.91 1010.98 1011.05 1011.15 1011.30 1011.49 1011.71 1011.95 1012.18 1012.40 1012.59 1012.74 1012.87 1012.98 1013.09 1013.20 1013.31 1013.42 1013.52 1013.60 1013.65 1013.65 1013.60 1013.52 1013.41 1013.30 1013.20 1013.12 1013.07 1013.06 1013.05
1007.76 1008.07 1008.32 1008.53 1008.73 1008.94 1009.18 1009.45 1009.75 1010.07 1010.38 1010.66 1010.91 1011.12 1011.30 1011.45 1011.59 1011.72 1011.85 1011.98 1012.12 1012.26 1012.38 1012.51 1012.62 1012.73 1012.84 1012.94 1013.04 1013.13 1013.21 1013.26 1013.27 1013.25 1013.18 1013.06 1012.91 1012.75 1012.59 1012.45 1012.34 1012.27 1012.24 1012.24
1008.11 1008.41 1008.61 1008.73 1008.82 1008.91 1009.06 1009.27 1009.55 1009.89 1010.28 1010.68 1011.06 1011.40 1011.69 1011.91 1012.07 1012.19 1012.26 1012.31 1012.35 1012.39 1012.44 1012.51 1012.59 1012.69 1012.80 1012.91 1013.01 1013.09 1013.14 1013.15 1013.11 1013.02 1012.88 1012.69 1012.48 1012.26 1012.05 1011.86 1011.72 1011.62 1011.57 1011.55
1008.44 1008.71 1008.84 1008.87 1008.86 1008.86 1008.92 1009.08 1009.36 1009.74 1010.20 1010.71 1011.21 1011.67 1012.06 1012.35 1012.54 1012.64 1012.67 1012.64 1012.60 1012.56 1012.55 1012.57 1012.63 1012.72 1012.84 1012.96 1013.08 1013.16 1013.20 1013.18 1013.09 1012.94 1012.74 1012.50 1012.23 1011.95 1011.70 1011.47 1011.29 1011.16 1011.08 1011.04
1008.66 1008.88 1008.94 1008.90 1008.80 1008.73 1008.73 1008.87 1009.15 1009.57 1010.11 1010.71 1011.32 1011.88 1012.36 1012.71 1012.93 1013.02 1013.02 1012.94 1012.83 1012.73 1012.66 1012.65 1012.69 1012.79 1012.92 1013.06 1013.20 1013.29 1013.32 1013.28 1013.17 1012.98 1012.74 1012.45 1012.14 1011.83 1011.54 1011.29 1011.08 1010.92 1010.81 1010.74
1008.73 1008.90 1008.90 1008.79 1008.64 1008.51 1008.49 1008.62 1008.91 1009.37 1009.97 1010.65 1011.35 1012.00 1012.55 1012.96 1013.20 1013.30 1013.28 1013.17 1013.02 1012.87 1012.77 1012.74 1012.77 1012.87 1013.02 1013.18 1013.33 1013.43 1013.47 1013.43 1013.30 1013.09 1012.82 1012.51 1012.18 1011.86 1011.55 1011.28 1011.06 1010.88 1010.74 1010.64
1008.65 1008.77 1008.73 1008.58 1008.40 1008.26 1008.23 1008.36 1008.68 1009.18 1009.83 1010.57 1011.33 1012.04 1012.64 1013.09 1013.36 1013.48 1013.45 1013.32 1013.16 1012.99 1012.87 1012.83 1012.86 1012.97 1013.12 1013.30 1013.46 1013.57 1013.61 1013.56 1013.43 1013.21 1012.94 1012.62 1012.29 1011.97 1011.66 1011.40 1011.17 1010.98 1010.83 1010.70
1008.46 1008.54 1008.49 1008.34 1008.17 1008.05 1008.04 1008.19 1008.53 1009.06 1009.73 1010.50 1011.29 1012.03 1012.66 1013.14 1013.44 1013.57 1013.55 1013.43 1013.26 1013.10 1012.98 1012.93 1012.96 1013.07 1013.23 1013.40 1013.56 1013.67 1013.70 1013.65 1013.51 1013.30 1013.03 1012.72 1012.40 1012.09 1011.81 1011.56 1011.35 1011.17 1011.00 1010.85
1008.20 1008.29 1008.26 1008.15 1008.02 1007.95 1007.98 1008.17 1008.54 1009.08 1009.75 1010.52 1011.31 1012.05 1012.68 1013.17 1013.48 1013.62 1013.63 1013.53 1013.38 1013.22 1013.11 1013.06 1013.09 1013.19 1013.34 1013.49 1013.63 1013.73 1013.74 1013.68 1013.53 1013.31 1013.04 1012.75 1012.45 1012.16 1011.91 1011.69 1011.50 1011.33 1011.18 1011.02
1007.95 1008.07 1008.10 1008.07 1008.03 1008.04 1008.14 1008.37 1008.76 1009.30 1009.95 1010.69 1011.45 1012.16 1012.77 1013.24 1013.55 1013.71 1013.73 1013.66 1013.53 1013.39 1013.29 1013.24 1013.26 1013.34 1013.45 1013.58 1013.68 1013.74 1013.72 1013.63 1013.46 1013.24 1012.96 1012.67 1012.39 1012.13 1011.90 1011.71 1011.55 1011.42 1011.28 1011.12
1007.75 1007.94 1008.07 1008.15 1008.23 1008.33 1008.51 1008.79 1009.20 1009.73 1010.35 1011.03 1011.73 1012.39 1012.95 1013.40 1013.70 1013.86 1013.90 1013.85 1013.74 1013.63 1013.53 1013.48 1013.47 1013.52 1013.59 1013.66 1013.71 1013.71 1013.65 1013.51 1013.31 1013.06 1012.78 1012.49 1012.21 1011.96 1011.76 1011.59 1011.46 1011.35 1011.23 1011.09
1007.62 1007.90 1008.15 1008.36 1008.57 1008.79 1009.06 1009.39 1009.82 1010.33 1010.91 1011.53 1012.16 1012.74 1013.25 1013.66 1013.94 1014.10 1014.15 1014.12 1014.03 1013.93 1013.83 1013.76 1013.72 1013.72 1013.73 1013.74 1013.71 1013.65 1013.53 1013.34 1013.10 1012.81 1012.51 1012.20 1011.92 1011.68 1011.48 1011.33 1011.21 1011.12 1011.02 1010.90
1007.53 1007.92 1008.29 1008.64 1008.98 1009.31 1009.67 1010.07 1010.51 1011.01 1011.55 1012.11 1012.67 1013.19 1013.64 1014.00 1014.26 1014.42 1014.47 1014.45 1014.37 1014.26 1014.16 1014.06 1013.98 1013.92 1013.86 1013.79 1013.70 1013.56 1013.38 1013.14 1012.85 1012.53 1012.19 1011.86 1011.56 1011.31 1011.10 1010.94 1010.83 1010.74 1010.65 1010.54
1007.46 1007.94 1008.42 1008.90 1009.35 1009.80 1010.25 1010.70 1011.17 1011.66 1012.17 1012.69 1013.19 1013.65 1014.05 1014.38 1014.62 1014.76 1014.81 1014.79 1014.71 1014.60 1014.47 1014.33 1014.20 1014.08 1013.96 1013.82 1013.66 1013.46 1013.21 1012.92 1012.60 1012.24 1011.87 1011.52 1011.19 1010.91 1010.68 1010.50 1010.36 1010.26 1010.16 1010.05
1007.36 1007.91 1008.49 1009.06 1009.62 1010.17 1010.69 1011.20 1011.70 1012.20 1012.69 1013.18 1013.64 1014.06 1014.43 1014.73 1014.94 1015.07 1015.12 1015.09 1015.00 1014.87 1014.71 1014.54 1014.36 1014.18 1013.99 1013.79 1013.57 1013.33 1013.04 1012.72 1012.36 1011.98 1011.59 1011.21 1010.85 1010.53 1010.26 1010.04 1009.87 1009.73 1009.61 1009.48
1007.24 1007.83 1008.47 1009.11 1009.75 1010.37 1010.96 1011.51 1012.05 1012.56 1013.05 1013.52 1013.96 1014.36 1014.70 1014.98 1015.18 1015.29 1015.33 1015.29 1015.18 1015.02 1014.83 1014.62 1014.39 1014.16 1013.93 1013.69 1013.44 1013.17 1012.86 1012.53 1012.16 1011.77 1011.37 1010.96 1010.57 1010.22 1009.90 1009.63 1009.40 1009.21 1009.05 1008.88
1007.11 1007.72 1008.38 1009.07 1009.76 1010.42 1011.06 1011.65 1012.21 1012.74 1013.24 1013.70 1014.13 1014.51 1014.83 1015.09 1015.27 1015.37 1015.39 1015.32 1015.19 1015.01 1014.78 1014.54 1014.28 1014.02 1013.77 1013.51 1013.25 1012.97 1012.67 1012.35 1011.99 1011.60 1011.19 1010.78 1010.36 1009.96 1009.60 1009.27 1008.98 1008.74 1008.52 1008.32
1007.02 1007.63 1008.31 1009.01 1009.71 1010.40 1011.05 1011.67 1012.24 1012.78 1013.27 1013.73 1014.14 1014.50 1014.80 1015.04 1015.20 1015.27 1015.26 1015.17 1015.02 1014.80 1014.56 1014.29 1014.01 1013.74 1013.48 1013.23 1012.98 1012.72 1012.45 1012.15 1011.82 1011.45 1011.05 1010.63 1010.19 1009.76 1009.35 1008.97 1008.62 1008.32 1008.06 1007.82
1007.06 1007.65 1008.31 1009.01 1009.70 1010.38 1011.03 1011.64 1012.20 1012.72 1013.20 1013.63 1014.01 1014.34 1014.62 1014.82 1014.94 1014.98 1014.94 1014.82 1014.64 1014.41 1014.15 1013.87 1013.59 1013.33 1013.08 1012.85 1012.63 1012.41 1012.18 1011.92 1011.62 1011.27 1010.89 1010.47 1010.02 1009.57 1009.12 1008.70 1008.31 1007.97 1007.67 1007.40
1007.25 1007.83 1008.47 1009.14 1009.80 1010.45 1011.06 1011.62 1012.15 1012.62 1013.06 1013.44 1013.78 1014.06 1014.28 1014.44 1014.52 1014.52 1014.45 1014.30 1014.10 1013.86 1013.59 1013.32 1013.06 1012.81 1012.59 1012.40 1012.22 1012.04 1011.84 1011.62 1011.35 1011.03 1010.66 1010.25 1009.80 1009.34 1008.88 1008.44 1008.03 1007.67 1007.36 1007.09
1007.63 1008.19 1008.80 1009.42 1010.03 1010.61 1011.16 1011.66 1012.11 1012.51 1012.88 1013.19 1013.46 1013.67 1013.83 1013.93 1013.96 1013.92 1013.81 1013.65 1013.44 1013.19 1012.94 1012.68 1012.44 1012.23 1012.04 1011.88 1011.74 1011.59 1011.43 1011.23 1010.99 1010.70 1010.35 1009.94 1009.50 1009.05 1008.59 1008.15 1007.76 1007.41 1007.12 1006.88
1008.16 1008.70 1009.26 1009.82 1010.35 1010.85 1011.30 1011.71 1012.07 1012.38 1012.64 1012.87 1013.05 1013.18 1013.27 1013.30 1013.28 1013.21 1013.08 1012.90 1012.69 1012.46 1012.23 1012.00 1011.79 1011.61 1011.45 1011.32 1011.20 1011.08 1010.94 1010.76 1010.53 1010.25 1009.92 1009.53 1009.12 1008.68 1008.25 1007.85 1007.49 1007.19 1006.95 1006.76
1008.76 1009.26 1009.77 1010.25 1010.70 1011.10 1011.44 1011.73 1011.98 1012.18 1012.34 1012.46 1012.55 1012.60 1012.62 1012.60 1012.54 1012.44 1012.30 1012.12 1011.93 1011.72 1011.51 1011.31 1011.14 1010.98 1010.85 1010.74 1010.63 1010.52 1010.38 1010.20 1009.98 1009.71 1009.40 1009.04 1008.65 1008.26 1007.88 1007.54 1007.25 1007.02 1006.85 1006.75
1009.34 1009.80 1010.24 1010.63 1010.97 1011.26 1011.48 1011.66 1011.78 1011.87 1011.92 1011.95 1011.96 1011.94 1011.90 1011.84 1011.75 1011.64 1011.50 1011.35 1011.17 1011.00 1010.82 1010.66 1010.50 1010.37 1010.25 1010.14 1010.03 1009.91 1009.77 1009.59 1009.37 1009.11 1008.81 1008.49 1008.15 1007.82 1007.52 1007.26 1007.06 1006.92 1006.85 1006.83
1009.81 1010.21 1010.56 1010.86 1011.09 1011.26 1011.37 1011.43 1011.45 1011.44 1011.40 1011.35 1011.29 1011.23 1011.15 1011.07 1010.97 1010.87 1010.75 1010.61 1010.47 1010.33 1010.18 1010.04 1009.90 1009.78 1009.66 1009.54 1009.42 1009.28 1009.12 1008.93 1008.72 1008.48 1008.21 1007.94 1007.67 1007.43 1007.22 1007.06 1006.96 1006.92 1006.94 1007.01
1010.10 1010.42 1010.68 1010.88 1011.01 1011.07 1011.08 1011.05 1010.98 1010.89 1010.79 1010.69 1010.59 1010.50 1010.41 1010.33 1010.24 1010.15 1010.06 1009.95 1009.84 1009.72 1009.59 1009.46 1009.34 1009.20 1009.07 1008.94 1008.79 1008.64 1008.47 1008.28 1008.08 1007.87 1007.66 1007.46 1007.27 1007.13 1007.02 1006.97 1006.98 1007.04 1007.14 1007.29
1010.20 1010.43 1010.60 1010.70 1010.74 1010.71 1010.65 1010.54 1010.42 1010.28 1010.15 1010.03 1009.92 1009.82 1009.74 1009.67 1009.60 1009.53 1009.46 1009.37 1009.28 1009.17 1009.05 1008.92 1008.78 1008.64 1008.49 1008.33 1008.17 1008.00 1007.83 1007.66 1007.50 1007.34 1007.19 1007.08 1007.00 1006.96 1006.96 1007.02 1007.12 1007.26 1007.44 1007.63
Thickness
5784 5790 5792 5789 5789 5792 5791 5794 5790 5794 5795 5797 5800 5800 5801 5802 5804 5804 5802 5802 5801 5799 5798 5797 5795 5794 5792 5790 5789 5786 5782 5779 5776 5774 5770 5767 5764 5762 5759 5757 5756 5754 5751 5750
5768 5778 5780 5778 5784 5786 5787 5789 5790 5789 5788 5798 5800 5799 5793 5793 5794 5794 5794 5794 5795 5794 5792 5791 5790 5788 5787 5785 5783 5781 5777 5774 5772 5769 5766 5762 5760 5758 5755 5753 5751 5749 5746 5745
5759 5769 5767 5762 5776 5780 5781 5786 5785 5779 5784 5791 5787 5785 5784 5786 5787 5787 5787 5788 5787 5787 5786 5785 5785 5784 5781 5779 5777 5775 5772 5770 5767 5764 5761 5758 5757 5754 5751 5748 5746 5743 5741 5740
5754 5750 5736 5765 5783 5781 5777 5779 5784 5782 5783 5784 5783 5783 5785 5784 5782 5781 5782 5781 5781 5782 5781 5781 5781 5779 5777 5774 5770 5768 5765 5763 5761 5758 5755 5753 5750 5747 5745 5743 5740 5738 5737 5735
5743 5739 5746 5757 5766 5768 5763 5763 5775 5773 5774 5776 5777 5775 5775 5778 5777 5775 5775 5775 5775 5776 5776 5774 5773 5771 5769 5766 5764 5761 5758 5756 5755 5752 5749 5746 5742 5740 5738 5736 5734 5733 5731 5730
5733 5726 5729 5749 5761 5766 5759 5748 5764 5765 5762 5762 5763 5758 5763 5769 5769 5768 5768 5768 5766 5767 5766 5763 5762 5762 5759 5757 5755 5752 5750 5748 5747 5744 5742 5739 5736 5734 5732 5730 5728 5727 5726 5724
5724 5724 5739 5747 5753 5753 5734 5738 5751 5755 5754 5753 5753 5755 5757 5760 5758 5758 5757 5757 5757 5755 5754 5753 5753 5751 5749 5748 5745 5745 5743 5741 5738 5736 5734 5732 5730 5727 5725 5723 5721 5719 5718 5718
5718 5715 5723 5737 5740 5734 5733 5740 5743 5744 5746 5745 5745 5747 5747 5747 5746 5746 5746 5746 5746 5744 5742 5742 5742 5740 5737 5736 5736 5735 5734 5731 5729 5727 5727 5726 5722 5719 5718 5715 5714 5712 5711 5710
5717 5717 5723 5730 5729 5731 5733 5731 5732 5735 5737 5737 5736 5736 5736 5736 5736 5736 5736 5736 5737 5735 5733 5732 5732 5730 5727 5726 5726 5725 5723 5721 5720 5719 5718 5716 5714 5712 5710 5708 5708 5707 5706 5705
5705 5712 5716 5719 5723 5724 5725 5723 5724 5726 5728 5729 5726 5727 5726 5725 5725 5725 5726 5726 5726 5725 5723 5722 5722 5721 5719 5717 5716 5714 5712 5712 5711 5710 5709 5708 5706 5706 5704 5702 5701 5699 5697 5696
5695 5701 5705 5709 5711 5713 5714 5715 5716 5718 5719 5719 5719 5718 5717 5716 5715 5715 5716 5716 5715 5713 5711 5710 5709 5709 5709 5707 5704 5703 5702 5701 5701 5702 5701 5697 5697 5696 5695 5694 5691 5687 5688 5687
5691 5695 5696 5697 5702 5704 5703 5704 5706 5707 5708 5710 5710 5708 5708 5707 5707 5706 5706 5705 5703 5702 5701 5699 5698 5697 5697 5695 5694 5692 5691 5691 5692 5692 5691 5690 5689 5687 5684 5682 5679 5675 5673 5671
5691 5693 5693 5693 5695 5696 5695 5696 5697 5697 5698 5699 5699 5699 5698 5698 5697 5696 5695 5693 5692 5690 5689 5688 5687 5685 5685 5685 5684 5682 5681 5681 5682 5682 5681 5680 5679 5679 5678 5675 5671 5668 5665 5662
5683 5683 5681 5683 5685 5686 5686 5686 5688 5689 5690 5690 5690 5689 5689 5688 5687 5686 5684 5684 5683 5680 5679 5678 5676 5675 5675 5674 5673 5672 5673 5672 5671 5671 5672 5672 5671 5670 5670 5668 5667 5665 5660 5654
5674 5676 5675 5677 5677 5677 5677 5677 5677 5678 5678 5679 5680 5679 5679 5677 5676 5676 5675 5674 5673 5670 5669 5667 5666 5665 5665 5664 5663 5663 5664 5664 5663 5663 5663 5662 5662 5662 5661 5659 5658 5657 5655 5651
5667 5669 5669 5667 5667 5667 5668 5668 5667 5666 5666 5667 5668 5668 5669 5669 5668 5667 5666 5665 5662 5660 5658 5657 5656 5655 5655 5654 5653 5654 5653 5651 5649 5652 5653 5653 5652 5652 5651 5650 5649 5648 5646 5644
5657 5658 5659 5658 5658 5659 5660 5660 5659 5658 5658 5658 5659 5659 5660 5660 5658 5657 5657 5656 5653 5651 5650 5647 5647 5646 5646 5645 5644 5646 5647 5646 5641 5643 5644 5644 5643 5643 5642 5640 5640 5638 5637 5635
5655 5655 5655 5654 5653 5652 5652 5652 5651 5650 5649 5649 5649 5649 5649 5648 5648 5648 5648 5646 5644 5642 5641 5640 5638 5637 5637 5636 5635 5637 5637 5638 5637 5636 5636 5635 5634 5634 5633 5632 5630 5629 5628 5626
5649 5649 5650 5649 5648 5647 5646 5645 5644 5643 5641 5640 5640 5639 5639 5639 5638 5638 5637 5636 5634 5632 5632 5632 5627 5627 5628 5628 5626 5627 5629 5629 5629 5629 5627 5624 5624 5624 5623 5622 5622 5621 5620 5617
5643 5644 5644 5643 5643 5641 5640 5639 5637 5635 5634 5633 5632 5631 5629 5629 5629 5628 5627 5626 5626 5625 5624 5621 5621 5621 5620 5621 5618 5622 5622 5622 5622 5621 5620 5619 5618 5616 5615 5614 5613 5613 5611 5608
5636 5636 5635 5635 5634 5634 5633 5632 5630 5628 5627 5626 5624 5622 5621 5620 5620 5619 5618 5618 5618 5616 5615 5612 5613 5613 5613 5612 5610 5614 5614 5613 5613 5612 5611 5609 5608 5607 5606 5604 5603 5602 5600 5598
5630 5629 5629 5628 5627 5626 5626 5625 5624 5622 5620 5619 5617 5616 5614 5613 5613 5612 5611 5610 5609 5606 5606 5608 5607 5604 5603 5601 5605 5606 5605 5604 5604 5603 5601 5599 5598 5597 5595 5594 5593 5592 5590 5588
5622 5622 5621 5620 5620 5619 5619 5618 5616 5614 5613 5611 5610 5609 5608 5607 5607 5606 5604 5604 5603 5599 5600 5600 5596 5592 5590 5594 5597 5598 5597 5596 5595 5594 5592 5590 5589 5587 5586 5585 5585 5583 5580 5578
5615 5614 5614 5613 5613 5612 5611 5611 5609 5608 5606 5605 5604 5602 5601 5601 5600 5601 5599 5596 5594 5592 5594 5590 5587 5585 5583 5588 5589 5590 5589 5588 5587 5586 5584 5583 5582 5580 5578 5576 5575 5573 5571 5569
5608 5608 5608 5607 5606 5606 5605 5604 5603 5601 5601 5600 5599 5597 5597 5596 5595 5594 5592 5591 5587 5586 5587 5585 5581 5580 5581 5583 5583 5581 5580 5580 5579 5578 5577 5575 5574 5571 5570 5568 5566 5564 5563 5561
5602 5603 5602 5601 5601 5601 5601 5600 5599 5598 5597 5595 5593 5592 5592 5591 5589 5588 5586 5585 5583 5580 5581 5581 5580 5577 5578 5577 5576 5575 5574 5573 5572 5571 5570 5568 5566 5564 5563 5561 5558 5556 5555 5553
5597 5597 5596 5597 5597 5597 5597 5595 5593 5592 5591 5590 5588 5587 5586 5585 5584 5582 5581 5580 5578 5577 5576 5575 5575 5574 5572 5570 5569 5568 5567 5567 5565 5564 5562 5560 5558 5556 5555 5553 5551 5549 5547 5545